Location: Niverville
(49.6028°N, 97.0419°W)
Time: 22:31:15
(UTC-06:00)

Daily predictions for brighter satellites

Satellite Brightness Start Highest point End
(mag) Time Altitude Azimuth Time Altitude Azimuth Time Altitude Azimuth
NOSS 3-4 (A) 4.1 18:21:38 10° WSW 18:27:56 62° NW 18:34:32 10° NE
BREEZE-M DEB (TANK) 2.4 18:25:33 10° W 18:27:57 89° SSE 18:32:36 10° E
NOSS 3-4 (C) 4.1 18:21:44 10° WSW 18:28:02 62° NW 18:34:40 10° NE
Meteor 1-18 Rocket 4.3 18:24:59 10° N 18:30:30 59° ENE 18:36:00 10° SSE
ATLAS CENTAUR R/B 2.5 18:26:46 10° WSW 18:31:10 47° NW 18:35:17 10° NNE
Cosmos 44 3.3 18:29:18 10° NW 18:33:49 76° SW 18:38:09 10° SSE
NOSS 2-2 (E) 3.9 18:30:22 10° SSW 18:34:23 51° SE 18:39:12 10° NE
Cosmos 2333 Rocket 4.0 18:31:17 10° N 18:34:32 15° NNE 18:37:47 10° ENE
ATLAS 2AS CENTAUR R/B 4.3 18:29:10 10° WNW 18:36:17 33° NNW 18:43:28 10° NE
COSMO-SKYMED 1 2.6 18:31:56 10° NNE 18:36:17 65° ESE 18:40:36 10° S
Cosmos 1633 4.3 18:37:54 10° ESE 18:39:50 14° E 18:41:47 10° NE
SJ-6B 3.1 18:37:21 10° SE 18:41:12 46° ENE 18:45:00 10° N
Cosmos 2082 Rocket 3.3 18:37:26 10° SW 18:42:55 47° NW 18:48:27 10° NNE
SL-16 R/B 2.2 18:37:32 10° NNW 18:43:16 83° ENE 18:48:57 10° SSE
Okean 2 Rocket 3.1 18:39:03 10° S 18:43:28 62° E 18:47:51 10° NNE
Cosmos 1484 Rocket 4.1 18:40:15 10° S 18:44:06 47° W 18:47:54 10° NNW
USA 215 3.7 18:40:03 10° ENE 18:46:25 57° NNW 18:52:47 10° W
USA 186 3.8 18:48:25 11° ENE 18:48:25 11° ENE 18:48:54 10° NE
NOSS 5 (C) 4.4 18:44:58 10° SSW 18:48:15 51° SE 18:51:14 10° NE
Meteor 1-14 Rocket 4.3 18:42:18 10° S 18:48:15 76° E 18:54:16 10° NNE
NOSS 2-2 (D) 3.6 18:50:28 10° SSW 18:54:33 66° SE 18:59:28 10° NE
Cosmos 1340 3.2 18:52:21 10° N 18:55:54 36° ENE 18:59:25 10° SE
Meteor 1-20 Rocket 4.4 18:51:37 10° S 18:57:19 58° E 19:03:03 10° NNE
Cosmos 1461 2.9 18:54:22 10° NW 18:58:22 79° SW 19:02:26 10° SSE
Meteor 1-13 Rocket 4.4 18:54:29 10° N 18:59:49 46° ENE 19:05:10 10° SE
Cosmos 1818 4.4 18:56:21 10° S 19:01:00 30° ESE 19:05:28 11° ENE
Cosmos 2151 Rocket 3.8 18:57:36 10° SSE 19:01:54 47° E 19:06:16 10° NNE
Cosmos 2322 Rocket 2.5 18:56:18 10° NNW 19:01:55 73° WSW 19:07:29 10° SSE
Cosmos 1745 Rocket 4.0 18:56:08 10° S 19:02:29 87° E 19:08:47 10° N
Meteor 1-28 Rocket 3.3 18:58:51 10° N 19:02:40 81° WNW 19:06:29 10° SSW
Okean 1 3.2 19:02:22 10° N 19:06:28 75° E 19:10:31 10° SSE
Cosmos 2292 Rocket 4.5 19:01:55 10° SSE 19:06:54 53° E 19:13:34 10° NNE
Genesis I 4.2 19:06:00 10° NNW 19:09:34 31° NE 19:11:31 20° E
Okean 1 Rocket 4.1 19:07:55 10° SE 19:11:33 25° E 19:15:12 10° NNE
RESURS DK-1 4.5 19:08:11 10° WSW 19:11:42 26° NW 19:15:14 10° N
FREGAT/IRIS 2.8 19:08:38 10° S 19:11:43 77° WSW 19:14:50 10° NNW
NOSS 2-2 (C) 3.6 19:07:35 10° SW 19:11:45 89° SE 19:16:47 10° NE
Cosmos 2322 3.8 19:07:11 10° NNW 19:12:51 57° NE 19:18:27 10° SE
Cosmos 1386 Rocket 4.4 19:08:45 10° S 19:14:52 84° E 19:20:56 10° N
Helios 1A 3.7 19:11:47 13° SE 19:14:57 32° ENE 19:18:41 10° N
CZ-2D R/B 3.8 19:12:51 10° SE 19:16:19 36° ENE 19:19:51 10° N
Cosmos 1570 Rocket 4.5 19:13:13 10° NNW 19:18:08 39° ENE 19:21:41 17° ESE
Cosmos 1833 Rocket 4.4 19:15:26 10° WSW 19:20:24 31° NW 19:25:24 10° NNE
Cosmos 407 Rocket 3.5 19:15:35 10° S 19:20:45 63° ESE 19:26:02 10° NNE
Okean 1-7 Rocket 4.2 19:17:21 10° N 19:21:35 36° ENE 19:24:48 15° SE
Cosmos 676 Rocket 4.2 19:16:47 10° S 19:21:42 46° ESE 19:26:42 10° NNE
ALOS 2.2 19:17:58 10° SSE 19:22:38 83° ENE 19:27:21 10° NNW
COSMOS 2428 3.2 19:19:13 10° NNW 19:24:37 41° NE 19:27:55 21° ESE
Meteor 2-4 Rocket 3.9 19:19:16 10° N 19:24:44 46° ENE 19:30:00 10° SE
Cosmos 2237 4.4 19:19:47 10° NNW 19:25:24 50° NE 19:29:27 18° ESE
deb Kosmos-1763 4.0 19:23:27 10° SSW 19:27:15 83° ESE 19:31:05 10° NNE
FENGYUN 3A 3.6 19:21:50 10° SSE 19:27:16 87° ENE 19:32:44 10° NNW
Spot 1 4.2 19:24:22 15° SE 19:27:24 44° ENE 19:31:22 10° N
Meteor 1-25 Rocket 4.4 19:21:53 10° SSW 19:27:30 77° WNW 19:33:14 10° N
H-2A R/B 2.6 19:23:51 10° SSE 19:27:30 61° ENE 19:31:13 10° N
Cosmos 1812 4.4 19:28:00 10° NNW 19:31:36 37° W 19:35:09 10° SSW
Cosmos 1238 Rocket 1.9 19:29:28 10° N 19:32:41 75° E 19:35:11 14° SSE
Cosmos 2237 Rocket 3.4 19:32:05 10° NNW 19:36:38 23° NE 19:37:59 22° ENE
Meteor 1-11 Rocket 3.9 19:33:33 10° S 19:39:10 54° E 19:44:55 10° NNE
Cosmos 1025 Rocket 3.4 19:35:48 10° N 19:39:56 40° ENE 19:40:58 34° ESE
Cosmos 2208 Rocket 4.2 19:35:47 10° NNW 19:41:10 54° ENE 19:44:13 25° SE
Cosmos 1536 Rocket 4.3 19:38:34 10° NNW 19:42:57 57° W 19:47:20 10° S
SAR-Lupe-1 4.0 19:42:11 33° SE 19:43:36 62° ENE 19:47:09 10° N
Cosmos 1190 Rocket 4.2 19:40:15 10° SSW 19:45:26 75° WNW 19:50:40 10° NNE
SAR-Lupe-4 3.4 19:45:47 23° SSE 19:47:55 82° ENE 19:51:32 10° NNW
Cosmos 1140 Rocket 3.6 19:43:44 10° S 19:48:39 48° ESE 19:53:36 10° NNE
Okean 2 4.3 19:46:07 10° N 19:49:05 31° NE 19:49:05 31° NE
Tiangong 2 3.7 19:52:46 10° SW 19:54:02 12° SSW 19:54:42 11° S
Cosmos 2360 Rocket 2.4 19:49:08 10° NNW 19:54:46 70° WSW 20:00:24 10° SSE
Spot 2 Rocket 3.8 19:50:09 10° S 19:55:11 67° WSW 20:00:15 10° NNW
Resurs 01 Rocket 2.1 19:51:01 10° S 19:55:23 60° WSW 19:59:46 10° NNW
GEOS 3 Rocket 3.5 19:52:36 19° NE 19:56:26 80° SE 20:01:43 10° SW
Cosmos 2219 Rocket 2.6 19:53:12 10° NNW 19:58:32 42° NE 19:59:34 38° E
Cosmos 1602 3.7 19:56:33 10° SSW 20:00:25 81° W 20:04:21 10° N
NOSS 0 Rocket 4.4 19:55:32 10° NNW 20:01:23 42° NE 20:02:45 37° E
Cosmos 2181 Rocket 4.4 19:56:52 10° NNW 20:03:01 66° W 20:09:15 10° S
Cosmos 614 Rocket 4.0 19:58:22 10° S 20:03:14 48° ESE 20:03:35 48° E
Cosmos 1850 Rocket 4.4 19:58:21 10° S 20:02:32 40° SE 20:02:32 40° SE
SL-16 R/B 3.7 20:03:28 10° N 20:07:37 20° NE 20:07:43 20° NE
BREEZE-M DEB (TANK) 3.5 20:06:03 10° W 20:08:32 33° SSW 20:09:29 29° S
SL-08 ROCKET BODY 4.3 20:03:02 10° S 20:09:08 68° E 20:15:18 10° NNE
Cosmos 2327 Rocket 4.5 20:03:22 10° S 20:09:26 58° E 20:15:38 10° NNE
ATLAS CENTAUR R/B 4.0 20:08:37 10° WNW 20:11:07 15° NNW 20:13:33 10° NNE
Envisat 2.9 20:10:22 51° ESE 20:11:19 61° ENE 20:16:20 10° N
USA 229 DEB 3.7 20:04:59 10° NW 20:12:07 75° NE 20:15:01 39° ESE
USA 229 3.7 20:05:05 10° NW 20:12:13 74° NE 20:15:05 40° ESE
Cosmos 1954 Rocket 3.9 20:08:27 10° SSW 20:13:39 85° WNW 20:18:56 10° NNE
Cosmos 1633 3.4 20:10:50 10° SSW 20:14:25 50° WNW 20:18:02 10° N
H-2A R/B 4.1 20:17:30 15° NNE 20:17:30 15° NNE 20:19:04 10° NNE
USA 186 3.5 20:19:50 28° NNW 20:19:50 28° NNW 20:21:27 10° NNW
Cosmos 1833 4.1 20:13:06 10° SSW 20:18:50 87° ESE 20:23:41 15° NNE
Cosmos 1300 Rocket 4.1 20:15:47 10° SSW 20:20:08 57° WNW 20:24:33 10° N
Cosmos 2333 Rocket 2.4 20:14:40 10° NNW 20:20:16 50° NE 20:20:34 49° ENE
NOSS 3-1 (A) 4.4 20:17:36 10° NW 20:24:29 46° NNE 20:26:26 39° ENE
ERS-1 Rocket 3.3 20:25:39 48° NE 20:25:39 48° NE 20:29:48 10° N
Cosmos 1939 Rocket 4.2 20:28:52 31° N 20:28:52 31° N 20:31:02 10° N
Cosmos 2184 Rocket 3.9 20:21:47 10° S 20:28:06 80° E 20:34:24 10° NNE
Cosmos 2074 Rocket 3.9 20:22:14 10° S 20:28:29 83° E 20:34:49 10° N
USA 215 3.8 20:26:24 33° NE 20:28:53 47° N 20:35:04 10° WNW
ATLAS 2AS CENTAUR R/B 4.1 20:22:32 10° NW 20:29:42 32° NNE 20:32:43 25° NE
Cosmos 1980 4.0 20:29:17 10° NNW 20:34:21 50° NE 20:34:21 50° NE
Cosmos 1818 4.0 20:38:53 10° SW 20:44:17 60° NW 20:46:10 39° NNE
Nadezhda 3 Rocket 3.8 20:38:48 10° N 20:44:59 75° E 20:45:09 75° E
Meteor 1-5 Rocket 4.2 20:39:25 10° S 20:45:25 89° WNW 20:51:23 10° NNE
NOSS 3-1 (C) 4.0 20:38:50 10° NW 20:46:03 64° NE 20:47:16 57° E
Cosmos 2285 Rocket 4.1 20:42:33 10° NNW 20:49:00 74° WSW 20:50:43 50° S
Okean 1 Rocket 4.4 20:45:03 10° SW 20:49:16 39° WNW 20:53:31 10° N
COSMOS 2428 3.7 21:03:37 10° NW 21:08:55 41° WSW 21:10:00 37° SW
Cosmos 2237 Rocket 2.9 21:15:42 10° NNW 21:19:50 50° NNW 21:19:50 50° NNW
Cosmos 2219 Rocket 3.5 21:37:18 10° NW 21:41:20 35° W 21:41:20 35° W
SL-16 R/B 3.9 21:46:58 10° NNW 21:49:37 28° NNW 21:49:37 28° NNW
H-2A R/B 4.2 21:58:07 21° NNW 21:58:07 21° NNW 21:59:48 10° NNW
Cosmos 2333 Rocket 4.0 21:59:16 10° NW 22:02:36 28° WNW 22:02:36 28° WNW
USA 215 4.2 22:13:45 42° NW 22:13:45 42° NW 22:17:55 10° WNW
ATLAS 2AS CENTAUR R/B 3.8 22:14:19 10° NW 22:20:09 46° NNW 22:20:09 46° NNW
